[[{"header":{"parameterUnit":"m.s-1","parameterCategory":1,"la1":30.2991,"la2":30.254,"lo1":-89.0895,"lo2":-89.0444,"dy":0.0017,"dx":0.0017,"nx":28,"ny":28,"refTime":"2023-09-05T09:00:00:Z","depth":0,"parameterNumber":2,"parameterNumberName":"U-component_of_WINDS"},"data":[0,0,0,0,0,0,0,0,0,0,0,0,0,0,0,0,0,0,0,0,0,0,0,0,0,0,0,0,0,0,0,0,0,0,0,0,0,0,0,0,0,0,0,0,0,0,0,0,0,0,0,0,0,0,0,0,0,0,-2.4376,-2.4377,0,-2.4453,-2.4454,-2.4455,-2.4442,-2.444,-2.4439,-2.4438,-2.4515,-2.4518,-2.4522,0,0,0,0,0,0,0,0,0,0,0,0,0,-2.4214,-2.4217,-2.4376,-2.4377,-2.4378,-2.4453,-2.4454,-2.4455,-2.4442,-2.444,-2.4439,-2.4437,-2.4514,-2.4518,-2.4522,0,0,0,0,0,0,0,0,0,0,0,0,0,-2.4287,-2.4218,-2.4376,-2.4381,-2.4382,-2.4453,-2.4454,-2.4455,-2.4442,-2.444,-2.4438,-2.4436,-2.4513,-2.4518,-2.4522,-2.4593,0,0,-2.4538,-2.454,0,0,0,0,0,0,0,0,-2.4283,-2.4293,-2.4379,-2.438,-2.4382,-2.4436,-2.4425,-2.4502,-2.4443,-2.4419,-2.4438,-2.4435,-2.449,-2.4497,-2.4516,-2.4597,-2.46,-2.4538,-2.4541,-2.4543,-2.4545,0,0,0,0,0,0,0,-2.4278,-2.429,-2.4407,-2.438,-2.4382,-2.4377,-2.4386,-2.444,-2.4465,-2.4421,-2.442,-2.443,-2.4491,-2.4511,-2.4517,-2.4601,-2.4538,-2.4542,-2.4545,-2.4547,-2.474,-2.4742,0,0,0,0,0,0,-2.4272,-2.4285,-2.4404,-2.4409,-2.4326,-2.4382,-2.4391,-2.442,-2.4464,-2.4469,-2.4431,-2.4429,-2.4503,-2.4512,-2.452,-2.4603,-2.4543,-2.4548,-2.4551,-2.4738,-2.474,-2.4743,0,0,0,0,0,0,-2.4268,-2.4283,-2.4401,-2.4347,-2.4362,-2.4387,-2.442,-2.4423,-2.4443,-2.4472,-2.4476,-2.4448,-2.4502,-2.4513,-2.4574,-2.4605,-2.455,-2.4555,-2.4735,-2.4739,-2.4742,-2.4771,0,0,0,0,0,0,-2.4264,-2.4281,-2.431,-2.4348,-2.4365,-2.4455,-2.4422,-2.4426,-2.4452,-2.445,-2.4489,-2.4493,-2.4501,-2.4567,-2.4579,-2.4611,-2.4558,-2.4733,-2.4737,-2.4741,-2.4767,-2.4775,-2.4781,0,0,0,0,0,-2.4258,-2.4316,-2.4311,-2.4326,-2.4401,-2.4457,-2.4467,-2.4476,-2.4455,-2.4482,-2.45,-2.4492,-2.46,-2.4573,-2.4587,-2.4621,-2.4731,-2.4736,-2.474,-2.4764,-2.4773,-2.4781,0,0,0,0,0,0,-2.4281,-2.4321,-2.4316,-2.4388,-2.4419,-2.4455,-2.449,-2.4486,-2.4523,-2.4519,-2.4528,-2.4537,-2.4598,-2.4616,-2.4585,-2.469,-2.4662,-2.467,-2.4676,-2.4685,-2.4692,-2.4685,-2.4563,0,0,0,0,0,-2.4294,-2.4338,-2.437,-2.443,-2.4446,-2.4465,-2.449,-2.4494,-2.4526,-2.454,-2.4562,-2.4593,-2.4634,-2.4661,-2.47,-2.477,-2.4776,-2.48,-2.4807,-2.4812,-2.4818,-2.4853,-2.4863,-2.4759,-2.4759,-2.4759,0,0,-2.4323,-2.4349,-2.4376,-2.4435,-2.446,-2.4502,-2.4476,-2.4524,-2.4555,-2.4547,-2.4605,-2.4622,-2.4657,-2.4722,-2.4752,-2.4739,-2.4849,-2.4819,-2.4823,-2.4826,-2.4859,-2.4869,-2.4878,-2.4762,-2.4761,-2.4761,0,0,-2.4395,-2.4421,-2.4472,-2.4497,-2.4534,-2.4546,-2.4558,-2.4594,-2.4605,-2.4664,-2.4657,-2.4694,-2.4765,-2.4789,-2.4811,-2.4889,-2.4881,-2.4902,-2.4937,-2.4971,-2.4979,-2.4986,-2.5011,-2.502,-2.4908,-2.4908,-2.4908,0,-2.4425,-2.4491,-2.4499,-2.4546,-2.4571,-2.4564,-2.4615,-2.4638,-2.4686,-2.4702,-2.4687,-2.4774,-2.4797,-2.4866,-2.4885,-2.4903,-2.4915,-2.4897,-2.4977,-2.4985,-2.4992,-2.5015,-2.5025,-2.491,-2.491,-2.4909,-2.4909,0,-2.4524,-2.4569,-2.4606,-2.4651,-2.468,-2.4729,-2.4743,-2.4771,-2.4771,-2.4784,-2.4842,-2.487,-2.4913,-2.493,-2.4932,-2.4998,-2.4988,-2.4975,-2.4948,-2.5003,-2.5025,-2.5035,-2.4913,-2.4912,-2.4911,-2.4911,0,0,-2.4614,-2.4662,-2.4675,-2.4694,-2.4733,-2.4767,-2.4814,-2.4856,-2.4878,-2.4911,-2.4949,-2.5008,-2.4995,-2.5019,-2.5023,-2.5053,-2.5109,-2.5036,-2.5037,-2.5046,-2.518,-2.5187,-2.5198,-2.5105,-2.5106,-2.5108,-2.5176,0,-2.4688,-2.4771,-2.4779,-2.4853,-2.4893,-2.4886,-2.4926,-2.4954,-2.4967,-2.5001,-2.5015,-2.5055,-2.5037,-2.5051,-2.508,-2.5096,-2.5135,-2.5092,-2.5138,-2.5139,-2.5127,-2.521,-2.522,-2.5282,-2.5185,-2.5186,-2.5187,0,-2.4786,-2.482,-2.4898,-2.4928,-2.4945,-2.4982,-2.5018,-2.5053,-2.5082,-2.5089,-2.5115,-2.5114,-2.516,-2.5131,-2.5193,-2.5163,-2.5182,-2.5192,-2.5195,-2.5198,-2.5165,-2.5213,-2.5303,-2.5311,-2.5202,-2.5201,-2.52,0,-2.484,-2.4906,-2.496,-2.4977,-2.5014,-2.5039,-2.5056,-2.5084,-2.5107,-2.5139,-2.5154,-2.5192,-2.5211,-2.5239,-2.5248,-2.5227,-2.5308,-2.5281,-2.5313,-2.5313,-2.5329,-2.5328,-2.5421,-2.5346,-2.5345,-2.5345,-2.5345,0,-2.4921,-2.4968,-2.4984,-2.5017,-2.5069,-2.5076,-2.5127,-2.5142,-2.5166,-2.52,-2.5197,-2.5229,-2.5239,-2.5272,-2.5279,-2.5327,-2.5337,-2.5342,-2.5343,-2.5342,-2.534,-2.5353,-2.5348,-2.5348,-2.5347,-2.5347,-2.5346,0,-2.499,-2.5003,-2.5061,-2.5091,-2.5099,-2.5136,-2.516,-2.5191,-2.5202,-2.5246,-2.5256,-2.5274,-2.5313,-2.5324,-2.5371,-2.5375,-2.5431,-2.5429,-2.542,-2.542,-2.545,-2.5446,-2.5553,-2.5566,-2.5484,-2.5485,-2.5485,0,-2.504,-2.5076,-2.5109,-2.5131,-2.5148,-2.5186,-2.5209,-2.5217,-2.5241,-2.5275,-2.5301,-2.5339,-2.537,-2.5431,-2.5448,-2.5482,-2.548,-2.5515,-2.5485,-2.5481,-2.5477,-2.5474,-2.5476,-2.552,-2.5521,-2.5521,-2.5522,0,-2.5126,-2.513,-2.5164,-2.5199,-2.5227,-2.5255,-2.5282,-2.5301,-2.5312,-2.5339,-2.5378,-2.5402,-2.5448,-2.5485,-2.552,-2.5535,-2.5529,-2.5531,-2.554,-2.5537,-2.553,-2.5531,-2.5433,-2.5528,-2.5528,-2.5527,-2.5527,-2.5527,-2.5185,-2.5215,-2.5242,-2.5279,-2.53,-2.5324,-2.5354,-2.5368,-2.5401,-2.5439,-2.5441,-2.5483,-2.5508,-2.5554,-2.5571,-2.5602,-2.5592,-2.5606,-2.5608,-2.5611,-2.5612,-2.5526,-2.5609,-2.5609,-2.5609,-2.5609,-2.5609,0,-2.5268,-2.5285,-2.5319,-2.5356,-2.5384,-2.5376,-2.5405,-2.5429,-2.5465,-2.549,-2.5519,-2.5562,-2.5597,-2.5615,-2.5649,-2.5671,-2.5669,-2.5679,-2.5677,-2.5679,-2.5621,-2.5609,-2.568,-2.568,-2.568,-2.568,-2.568,-2.568,-2.5315,-2.5364,-2.5371,-2.5429,-2.5445,-2.5485,-2.5502,-2.5523,-2.5542,-2.559,-2.5619,-2.5631,-2.5652,-2.5687,-2.5717,-2.5721,-2.5733,-2.5744,-2.5747,-2.5691,-2.5684,-2.5677,-2.5665,-2.5747,-2.5747,-2.5802,-2.5803,-2.5803]},{"header":{"parameterUnit":"m.s-1","parameterCategory":1,"la1":30.2991,"la2":30.254,"lo1":-89.0895,"lo2":-89.0444,"dy":0.0017,"dx":0.0017,"nx":28,"ny":28,"refTime":"2023-09-05T09:00:00:Z","depth":0,"parameterNumber":3,"parameterNumberName":"V-component_of_WINDS"},"data":[0,0,0,0,0,0,0,0,0,0,0,0,0,0,0,0,0,0,0,0,0,0,0,0,0,0,0,0,0,0,0,0,0,0,0,0,0,0,0,0,0,0,0,0,0,0,0,0,0,0,0,0,0,0,0,0,0,0,-0.4044,-0.4042,0,-0.3906,-0.3905,-0.3903,-0.3907,-0.3909,-0.3911,-0.3913,-0.3762,-0.3756,-0.375,0,0,0,0,0,0,0,0,0,0,0,0,0,-0.43,-0.4295,-0.4044,-0.4042,-0.4041,-0.3907,-0.3905,-0.3903,-0.3907,-0.3909,-0.3912,-0.3914,-0.3763,-0.3757,-0.375,0,0,0,0,0,0,0,0,0,0,0,0,0,-0.4178,-0.4294,-0.4044,-0.4027,-0.4024,-0.3907,-0.3905,-0.3902,-0.3906,-0.3909,-0.3912,-0.3915,-0.3766,-0.3757,-0.3749,-0.3637,0,0,-0.3722,-0.3718,0,0,0,0,0,0,0,0,-0.4185,-0.4169,-0.4031,-0.4028,-0.4024,-0.3927,-0.3939,-0.3813,-0.3906,-0.3951,-0.3913,-0.3916,-0.3814,-0.3801,-0.3769,-0.363,-0.3623,-0.3721,-0.3716,-0.3712,-0.371,0,0,0,0,0,0,0,-0.4193,-0.4174,-0.3989,-0.4029,-0.4025,-0.4022,-0.4008,-0.3915,-0.3867,-0.3947,-0.3947,-0.3931,-0.3812,-0.3777,-0.3765,-0.3621,-0.3721,-0.3714,-0.3708,-0.3705,-0.3381,-0.3377,0,0,0,0,0,0,-0.4207,-0.4182,-0.3994,-0.3985,-0.4114,-0.4015,-0.4,-0.3955,-0.3868,-0.3858,-0.3929,-0.3932,-0.3791,-0.3775,-0.376,-0.3621,-0.3712,-0.3704,-0.3699,-0.3384,-0.338,-0.3376,0,0,0,0,0,0,-0.4213,-0.419,-0.3999,-0.4083,-0.4059,-0.4008,-0.3958,-0.3951,-0.3916,-0.3855,-0.3845,-0.3902,-0.3792,-0.3772,-0.3668,-0.3616,-0.37,-0.3692,-0.3388,-0.3383,-0.3378,-0.3345,0,0,0,0,0,0,-0.422,-0.4192,-0.4152,-0.4083,-0.4054,-0.3912,-0.3955,-0.3946,-0.3902,-0.3905,-0.3828,-0.3817,-0.3793,-0.3681,-0.3659,-0.3606,-0.3685,-0.3392,-0.3386,-0.338,-0.335,-0.3339,-0.333,0,0,0,0,0,-0.4229,-0.4146,-0.415,-0.4127,-0.4003,-0.391,-0.3893,-0.387,-0.3898,-0.3855,-0.3816,-0.382,-0.3626,-0.367,-0.3645,-0.3589,-0.3395,-0.3388,-0.338,-0.3355,-0.3341,-0.333,0,0,0,0,0,0,-0.4207,-0.4137,-0.414,-0.4033,-0.3978,-0.3911,-0.3856,-0.3857,-0.3789,-0.3794,-0.3765,-0.3747,-0.3642,-0.3605,-0.3655,-0.3475,-0.3514,-0.3501,-0.3503,-0.3489,-0.3479,-0.3489,-0.3678,0,0,0,0,0,-0.4191,-0.4124,-0.4065,-0.3976,-0.3948,-0.3907,-0.3865,-0.3852,-0.3792,-0.3767,-0.372,-0.3659,-0.3584,-0.3535,-0.3463,-0.3346,-0.3327,-0.3294,-0.3284,-0.3276,-0.3264,-0.3196,-0.318,-0.3351,-0.3351,-0.3352,0,0,-0.4154,-0.4108,-0.4067,-0.397,-0.3926,-0.3853,-0.3887,-0.3809,-0.3754,-0.3754,-0.3653,-0.3617,-0.3546,-0.3434,-0.3382,-0.34,-0.3213,-0.3266,-0.326,-0.3253,-0.3187,-0.3171,-0.3156,-0.3346,-0.3347,-0.3348,0,0,-0.4051,-0.4011,-0.3931,-0.3887,-0.382,-0.3793,-0.3774,-0.3707,-0.3683,-0.3582,-0.358,-0.3512,-0.3385,-0.3334,-0.3291,-0.3168,-0.3168,-0.3145,-0.3091,-0.3025,-0.3011,-0.2999,-0.2952,-0.2936,-0.3134,-0.3134,-0.3134,0,-0.4013,-0.3908,-0.3889,-0.3812,-0.3768,-0.3768,-0.3685,-0.3642,-0.3553,-0.3521,-0.3543,-0.3382,-0.3335,-0.321,-0.318,-0.3146,-0.312,-0.3153,-0.3016,-0.3003,-0.2991,-0.2946,-0.2929,-0.3132,-0.3132,-0.3132,-0.3132,0,-0.3864,-0.379,-0.3733,-0.3652,-0.3601,-0.3521,-0.3487,-0.3438,-0.3429,-0.3398,-0.3293,-0.3237,-0.3152,-0.3122,-0.3112,-0.2994,-0.3007,-0.3023,-0.3061,-0.2973,-0.293,-0.2913,-0.3128,-0.3129,-0.313,-0.313,0,0,-0.3741,-0.3651,-0.363,-0.3592,-0.3519,-0.3459,-0.3378,-0.3299,-0.3255,-0.3194,-0.3123,-0.3015,-0.3029,-0.298,-0.2964,-0.2907,-0.2809,-0.2929,-0.2926,-0.2906,-0.2672,-0.2659,-0.264,-0.281,-0.2807,-0.2804,-0.2677,0,-0.3629,-0.3488,-0.3468,-0.3342,-0.3272,-0.3271,-0.32,-0.3145,-0.3114,-0.3047,-0.3012,-0.2935,-0.2961,-0.2931,-0.2875,-0.2833,-0.2761,-0.2842,-0.2738,-0.2735,-0.2754,-0.2618,-0.2604,-0.2487,-0.2661,-0.2658,-0.2656,0,-0.3478,-0.3416,-0.3283,-0.3218,-0.3188,-0.3125,-0.3049,-0.2987,-0.2923,-0.2904,-0.285,-0.2841,-0.2752,-0.2796,-0.2672,-0.2727,-0.2684,-0.2657,-0.2651,-0.2638,-0.2688,-0.2598,-0.245,-0.2431,-0.263,-0.2632,-0.2634,0,-0.3399,-0.3282,-0.3187,-0.3155,-0.3077,-0.3032,-0.2996,-0.2936,-0.2889,-0.2822,-0.279,-0.2713,-0.2669,-0.2608,-0.2576,-0.2612,-0.2452,-0.2494,-0.243,-0.2431,-0.2394,-0.2397,-0.2234,-0.2371,-0.2372,-0.2372,-0.2372,0,-0.3273,-0.3191,-0.315,-0.3092,-0.2999,-0.2976,-0.2883,-0.2849,-0.2795,-0.2727,-0.2721,-0.2656,-0.262,-0.2548,-0.2523,-0.2422,-0.2402,-0.2382,-0.2375,-0.2381,-0.2383,-0.235,-0.2356,-0.2367,-0.2368,-0.2369,-0.237,0,-0.3168,-0.3138,-0.3034,-0.297,-0.2952,-0.2886,-0.2828,-0.2769,-0.274,-0.2653,-0.2631,-0.2583,-0.2498,-0.2462,-0.2357,-0.234,-0.2223,-0.2224,-0.2245,-0.2242,-0.218,-0.2185,-0.1988,-0.1959,-0.2118,-0.2117,-0.2115,0,-0.3089,-0.3026,-0.2956,-0.2912,-0.2876,-0.2804,-0.2757,-0.2731,-0.2681,-0.2603,-0.2552,-0.2469,-0.24,-0.2265,-0.2218,-0.2137,-0.2134,-0.207,-0.2121,-0.2128,-0.2129,-0.2132,-0.2124,-0.206,-0.2058,-0.2057,-0.2056,0,-0.295,-0.2939,-0.2872,-0.28,-0.2744,-0.2685,-0.2627,-0.259,-0.2554,-0.2498,-0.2414,-0.2361,-0.2255,-0.217,-0.2087,-0.2046,-0.2043,-0.2041,-0.2021,-0.2024,-0.2038,-0.2027,-0.2217,-0.2045,-0.2046,-0.2047,-0.2047,-0.2048,-0.2854,-0.2797,-0.2739,-0.2664,-0.2619,-0.2564,-0.2506,-0.2469,-0.24,-0.2314,-0.2302,-0.221,-0.2145,-0.2033,-0.199,-0.1915,-0.193,-0.1903,-0.1895,-0.1888,-0.1882,-0.2053,-0.19,-0.19,-0.19,-0.1901,-0.1901,0,-0.2712,-0.2675,-0.2607,-0.2527,-0.2468,-0.2475,-0.2411,-0.2359,-0.228,-0.2222,-0.2156,-0.2057,-0.1975,-0.1922,-0.1838,-0.1788,-0.1784,-0.1766,-0.1768,-0.1758,-0.1875,-0.1899,-0.1771,-0.1771,-0.1771,-0.1771,-0.1771,-0.1771,-0.2632,-0.2536,-0.2517,-0.2397,-0.2359,-0.2272,-0.2235,-0.2183,-0.2136,-0.2028,-0.1961,-0.1928,-0.187,-0.1782,-0.1706,-0.1692,-0.166,-0.1641,-0.1627,-0.1737,-0.175,-0.1763,-0.1785,-0.1635,-0.1634,-0.1515,-0.1514,-0.1513]}]]